Location: Unspecified
(34.4950°S, 58.5160°W)
Time: 00:45:48
(UTC+00:00)

USA 215 - Pass Details

Date: 19 April 2026
Orbit: 1098 x 1109 km, 123.0° (Epoch: 10 January)

Event Time Altitude Azimuth Distance (km) Brightness Sun altitude
Exits shadow 00:13:54 42° 190° (S) 1,539 4.0 -35.1°
Maximum altitude 00:15:06 46° 218° (SW) 1,453 4.0 -35.3°
Drops below altitude 10° 00:21:15 10° 289° (WNW) 2,958 6.1 -36.6°
Sets 00:23:50 0° 294° (WNW) 3,910 6.8 -37.1°
